This demonstration page uses our WeatherBlox Daily Observations layout. Learn more.

41.55636, -103.73856

Hourly Observations for May 19, 2019

Temp ( °F °C ) Dew Point ( °F °C ) Humidity (%) Winds ( mph kmh ) Pressure ( in mb ) Visibility ( mi km ) Precip ( " mm )
12:53 am 00:53 Clear 36 2.2 29 -1.7 76 76 NW 13 20 29.91 1013 10 16.09344 0 0
1:53 am 01:53 Mostly Cloudy 35 1.7 29 -1.7 78 78 NW 12 19 29.94 1014 10 16.09344 0 0
2:38 am 02:38 Cloudy 36 2 30 -1 81 81 NW 14 22 30.03 1017 10 16.09344 0 0
2:53 am 02:53 Cloudy 37 2.8 30 -1.1 76 76 NW 14 22 29.94 1014 10 16.09344 0 0
3:53 am 03:53 Cloudy 37 2.8 29 -1.7 73 73 NW 10 17 29.97 1015 10 16.09344 0 0
4:20 am 04:20 Cloudy 36 2.2 28 -2.2 73 73 NW 16 26 30.06 1018 10 16.09344 0 0
4:44 am 04:44 Mostly Cloudy 36 2 28 -2 75 75 NW 14 22 30.09 1019 10 16.09344 0 0
4:53 am 04:53 Cloudy 36 2.2 29 -1.7 76 76 WNW 13 20 29.97 1015 10 16.09344 0 0
5:53 am 05:53 Mostly Cloudy 35 1.7 28 -2.2 76 76 NNW 15 24 29.97 1015 10 16.09344 0 0
6:53 am 06:53 Cloudy 37 2.8 28 -2.2 70 70 NW 17 28 30 1016 10 16.09344 0 0
7:53 am 07:53 Cloudy 40 4.4 29 -1.7 65 65 NW 16 26 30.03 1017 10 16.09344 0 0
8:53 am 08:53 Cloudy 40 4.4 28 -2.2 63 63 NW 18 30 30.03 1017 10 16.09344 0 0
9:53 am 09:53 Mostly Cloudy 44 6.7 31 -0.6 60 60 NW 15 24 30.03 1017 10 16.09344 0 0
10:19 am 10:19 Mostly Cloudy 44 6.7 31 -0.6 60 60 WNW 12 19 30.03 1017 10 16.09344 0 0
10:53 am 10:53 Cloudy 45 7.2 30 -1.1 56 56 NW 5 7 30.03 1017 10 16.09344 0 0
11:53 am 11:53 Cloudy 47 8.3 30 -1.1 52 52 Calm 30 1016 10 16.09344 0 0
12:53 pm 12:53 Mostly Cloudy 51 10.6 32 0 48 48 VRB 6 9 29.97 1015 10 16.09344 0 0
1:53 pm 13:53 Mostly Cloudy 49 9.4 32 0 52 52 ENE 9 15 30 1016 10 16.09344 0 0
2:53 pm 14:53 Mostly Cloudy 50 10 32 0 50 50 ENE 9 15 29.97 1015 10 16.09344 0 0
3:53 pm 15:53 Mostly Sunny 52 11.1 33 0.6 49 49 ENE 12 19 29.94 1014 10 16.09344 0 0
4:53 pm 16:53 Cloudy 50 10 33 0.6 52 52 ENE 12 19 29.94 1014 10 16.09344 0 0
5:53 pm 17:53 Cloudy 49 9.4 33 0.6 55 55 ENE 15 24 29.97 1015 10 16.09344 0 0
6:53 pm 18:53 Mostly Cloudy 46 7.8 33 0.6 61 61 ENE 17 28 29.97 1015 10 16.09344 0 0
7:53 pm 19:53 Cloudy 45 7.2 33 0.6 63 63 ENE 21 33 29.97 1015 10 16.09344 0 0
8:53 pm 20:53 Mostly Cloudy 43 6.1 33 0.6 68 68 ENE 17 28 30 1016 10 16.09344 0 0
9:53 pm 21:53 Cloudy 41 5 33 0.6 73 73 E 18 30 30 1016 10 16.09344 0 0
10:53 pm 22:53 Cloudy 41 5 33 0.6 73 73 E 15 24 30 1016 10 16.09344 0.001 0.001
11:53 pm 23:53 Cloudy 41 5 33 0.6 73 73 E 15 24 30 1016 10 16.09344 0 0

Powered by AerisWeather